Regional Weather Roundup
Issued by NWS Grand Forks, ND

Home | Current Version | Previous Version | Text Only | Print | Product List | Glossary Off
Versions: 1 2 3 4 5 6 7 8 9 10 11 12 13 14 15 16 17 18 19 20 21 22 23 24 25 26 27 28 29 30 31 32 33 34 35 36 37 38 39 40 41 42 43 44 45 46 47 48 49 50

000
ASUS43 KFGF 160310
RWRFGF
PRAIRIE TO PINES  WEATHER ROUNDUP
NATIONAL WEATHER SERVICE EASTERN NORTH DAKOTA/GRAND FORKS ND
1000 PM CDT TUE APR 15 2014

 **SATELLITE DATA USED TO AUGMENT SKY COVER AT AUTOMATED STATIONS**
 *****  WEATHER ACROSS EASTERN NORTH DAKOTA  *****

CITY           SKY/WX    TMP DP  RH WIND       PRES   REMARKS
GRAND FORKS    CLOUDY    30  15  53 E9        29.98S WCI  22
GRAND FRKS AFB CLOUDY    30  14  52 E7        30.02R WCI  23
GRAND FRKS NWS   N/A     30 N/A N/A E10         N/A  WCI  21
DEVILS LAKE    CLOUDY    28  12  50 E22       29.93R WCI  15
FARGO          CLOUDY    33  13  43 E8        29.98R
WAHPETON ARPT  CLOUDY    32  14  47 E15       29.96S WCI  22
$$

 ***** WEATHER ACROSS CENTRAL AND WESTERN NORTH DAKOTA  *****

CITY           SKY/WX    TMP DP  RH WIND       PRES   REMARKS
BISMARCK       MOCLDY    32  17  54 E23G31    29.77R WCI  19
MINOT          FLURRIES  27  21  78 E16G24    29.83R WCI  15
JAMESTOWN      CLOUDY    28  22  78 E24       29.87R WCI  14
MINOT AFB      FLURRIES  27  25  93 E23       29.83R WCI  12
GARRISON         N/A     30  20  66 E23G31    29.76R WCI  17
WILLISTON      CLOUDY    38  28  67 SE26      29.69R
DICKINSON      MOCLDY    38  22  52 E14       29.60R
HETTINGER      CLOUDY    44  24  45 E14       29.62R
$$

 *****  OTHER AIRPORT OBSERVATIONS IN OUR AREA  *****

CITY           SKY/WX    TMP DP  RH WIND       PRES   REMARKS
WALHALLA       FAIR      27  16  63 E6        30.05R WCI  20
GRAFTON AIRPOR FAIR      28  18  64 E12       30.04R WCI  18
VALLEY CITY AR NOT AVBL
CANDO          CLOUDY    27  16  63 E20G25    29.95R WCI  13
CAVALIER APRT  FAIR      28  16  59 E10       30.05R WCI  19
GWINNER        CLEAR     32  14  47 E22G28    29.90S WCI  19
ROLLA          CLOUDY    25  16  68 SE20      29.94R WCI  11
 ***** THE ABOVE OBSERVATIONS ARE NON NWS ARE NOT QUALITY
       CONTROLLED AND MAY MIS-REPORT RAIN FOR SNOW...
$$

  *****  WEATHER ACROSS NORTHERN MINNESOTA  *****

CITY           SKY/WX    TMP DP  RH WIND       PRES   REMARKS
FLAG ISLAND    CLEAR     19   9  63 CALM      30.09R
WARROAD        CLEAR     19  10  68 E6        30.09R WCI  11
ROSEAU         CLEAR     23  12  63 E8        30.08R WCI  14
HALLOCK        CLOUDY    28  10  47 E9        30.06R WCI  20
THF RVR FALLS  CLOUDY    28  10  47 E8        30.04S WCI  20
BAUDETTE       CLEAR     20   6  55 NE3       30.08R
WASKISH        CLEAR     21  12  68 NE5       30.07R WCI  15
CROOKSTON      CLOUDY    30  16  55 E10       30.04S WCI  21
$$
  *****  WEATHER ACROSS CENTRAL AND WEST MINNESOTA  *****

CITY           SKY/WX    TMP DP  RH WIND       PRES   REMARKS
FOSSTON        CLOUDY    25   7  46 E8        30.03R WCI  16
BEMIDJI        CLOUDY    25   6  45 E5        30.03R WCI  19
PARK RAPIDS    CLOUDY    29   5  36 E5        30.01R WCI  24
ELBOW LAKE     CLOUDY    32  15  49 E15       29.96S WCI  21
WADENA         CLOUDY    28  10  47 SE8       30.00F WCI  20
DETROIT LAKES  CLOUDY    32  10  40 E8        30.00S WCI  25
MOORHEAD       NOT AVBL
FERGUS FALLS   CLOUDY    30  10  43 E15       29.95S WCI  19
MORRIS MN      CLOUDY    34  10  37 E18       29.94F WCI  23
STAPLES        CLOUDY    28   7  40 E3        30.03S
$$
  *****  WEATHER ELSEWHERE ACROSS MINNESOTA  *****

CITY           SKY/WX    TMP DP  RH WIND       PRES   REMARKS
DULUTH         CLEAR     26   5  40 S3        30.06R
INTRNTL FALLS  CLEAR     19   9  65 CALM      30.08R
ELY            CLEAR     18   3  53 CALM      30.07R
CLOQUET          N/A     25   3  39 CALM      30.07R
WHEATON        CLOUDY    36  18  48 E20       29.95S
BRAINERD       CLOUDY    32   5  32 SE6       30.06R
HIBBING        CLEAR     20   9  62 CALM      30.06R
ALEXANDRIA     CLOUDY    31  11  43 E15       29.98S WCI  20
SAINT CLOUD    CLOUDY    33   7  33 E3        30.05S
MINNEAPOLIS    CLOUDY    34   9  35 SE7       30.08S
$$

  *****  WEATHER ACROSS SOUTH DAKOTA  *****

CITY           SKY/WX    TMP DP  RH WIND       PRES   REMARKS
SIOUX FALLS    CLOUDY    40  24  53 SE17G25   29.80S
BROOKINGS      NOT AVBL
WATERTOWN      CLOUDY    34  19  54 E15G22    29.80S WCI  24
HURON          CLOUDY    44  25  47 SE17G30   29.68S
SISSETON         N/A     33  14  45 SE16G24   29.89S WCI  23
ABERDEEN       CLOUDY    34  16  47 E23G33    29.78S WCI  22
MITCHELL       CLOUDY    47  29  49 SE23G32   29.70R
PIERRE         CLOUDY    51  29  42 SE20      29.53F
MOBRIDGE       CLOUDY    41  22  46 E29G36    29.62R
RAPID CITY     CLOUDY    53  32  44 N20       29.55R
$$

  *****  SOME WEATHER IN NEARBY STATES *****

CITY           SKY/WX    TMP DP  RH WIND       PRES   REMARKS
GLASGOW MT     MOCLDY    42  21  43 E6        29.63R
GREAT FALLS MT LGT RAIN  40  32  73 W14       29.81R
CHEYENNE WY    CLOUDY    48  19  31 W15       29.71S
SCOTTSBLUFF NE CLOUDY    62  21  20 W18G32    29.61R
OMAHA NE       PTCLDY    47  29  49 SE21      29.87S
DES MOINES IA  PTCLDY    42  22  44 SE13      30.02F
DAVENPORT IA   CLEAR     32  19  58 E5        30.16R
CHICAGO IL     CLEAR     31  19  61 S5        30.19R
EAU CLAIRE WI  CLOUDY    31  10  41 CALM      30.11R
LA CROSSE WI   CLOUDY    33  16  49 S5        30.14R
$$

  *****  SOME NATIONAL WEATHER *****

CITY           SKY/WX    TMP DP  RH WIND       PRES   REMARKS
LA GUARDIA NY  LGT SNOW  37  32  82 NW24G31   29.87R
RALEIGH NC     PTCLDY    42  33  70 VRB7G22   29.98R
ATLANTA GA     PTCLDY    40  25  55 NW9G22    30.08R
NEW ORLEANS LA PTCLDY    53  31  42 N15G25    30.19R
OKLAHOMA CITY  PTCLDY    50  22  33 S9        30.06R
ALBUQUERQUE NM MOCLDY    60   8  12 S20       29.92S
SALT LAKE CITY CLOUDY    56  28  34 N12       29.87R
LOS ANGELES CA MOCLDY    59  53  80 W16       29.86R
BOISE ID       CLEAR     53  12  19 N13       29.97R
SEATTLE WA     CLOUDY    52  29  41 SW9       30.10F
$$

*** WEATHER ACROSS MANITOBA...SASKATCHEWAN AND ONTARIO ***
                ***ONTARIO***

CITY           SKY/WX    TMP DP  RH WIND       PRES   REMARKS
GERALDTON      CLEAR      9  -2  61 SW2       30.06R
THUNDER BAY    CLEAR     19   5  53 VRB2      30.12R
SIOUX LOOKOUT  PTCLDY     9   1  72 CALM      30.08R
TORONTO        CLEAR     23  10  58 NW17      30.16R WCI   9
BIG TROUT LK   CLEAR      5  -6  61 N5        30.09R WCI  -4
PICKLE LAKE    NOT AVBL
DRYDEN         CLEAR     19   0  42 NE3       30.08R
KENORA         PTCLDY    19   1  45 W2        30.08R
$$
                *** MANITOBA***

CITY           SKY/WX    TMP DP  RH WIND       PRES   REMARKS
BRANDON        CLOUDY    23  18  80 E18       30.01R WCI   9
DAUPHIN        PTCLDY    21  10  63 E10       30.08R WCI  10
ISLAND LAKE    CLEAR     14   0  52 N5        30.15R WCI   6
PILOT MOUND      N/A     25  16  68 E17         N/A  WCI  11
THE PAS        PTCLDY    14  -4  44 E5        30.16R WCI   6
THOMPSON       CLEAR      5  -2  72 N7        30.23R WCI  -7
WINNIPEG       PTCLDY    19  10  68 NE8       30.11R WCI   9
LYNN LAKE      CLEAR     10  -2  56 NE5       30.24R WCI   2
CHURCHILL      CRYSTALS   0  -4  85 NW16      30.26S WCI -21
GILLAM         CLEAR      3  -6  66 NE6       30.24R WCI  -8
$$
                ***SASKATCHEWAN***

CITY           SKY/WX    TMP DP  RH WIND       PRES   REMARKS
ESTEVAN        FLURRIES  28  23  80 E23       29.81R WCI  14
KINDERSLEY     CLOUDY    28  23  80 NE17      29.89R WCI  16
LLOYDMINSTER   SNOWSHWR  25  21  86 E13       29.97R WCI  13
PRINCE ALBERT  MOCLDY    23  10  58 E12       30.04R WCI  12
REGINA         LGT SNOW  27  23  86 E16G24    29.87R WCI  14
YORKTON        CLOUDY    23  12  63 E16G22    30.00R WCI  10
N. BATTLEFORD  FLURRIES  27  21  80 E12G17    30.00R WCI  16
LA RONGE       CLEAR     18   1  49 NE8       30.13R WCI   7
SASKATOON      FLURRIES  27  21  80 E15       29.98R WCI  15
SWIFT CURRENT  CLEAR     28  25  86 NE15      29.78R WCI  17
$$
NOTE: THESE ARE AUTOMATED STATIONS WITH LIMITED QUALITY CONTROL
      "FAIR" INDICATES FEW OR NO CLOUDS BELOW 12,000 FEET WITH NO
      SIGNIFICANT WEATHER AND/OR OBSTRUCTIONS TO VISIBILITY.
      SKY/WX - SKY CONDITION AND SIGNIFICANT WEATHER.
      TMP - AIR TEMPERATURE.    DP   - DEWPOINT TEMPERATURE.
      RH  - RELATIVE HUMIDITY.  PRES - PRESSURE.
      HX  - HEAT INDEX.         WCI  - WIND CHILL INDEX.
$



USA.gov is the U.S. government's official web portal to all federal, state and local government web resources and services.